When you browse on this site, cookies collect data to enhance your experience and personalize the content and advertising you see.
Visit our Privacy Policy to learn more. By continuing to use the site, you agree to this use of cookies and data.
  • In United Kingdom
  • List of Countries
  • For 7 days
  • Water Temperature
  • Weather Map
  • Weather Widgets
  • user-avatar
    Login

    Hourly Weather Olympia

    Today, 21 August, Wednesday

    Time Temperature Precipitation Wind Pressure Humidity
    00:00 +24°C° 0 mm 2 mps 761 mmHg 54%
    01:00 +24°C° 0 mm 2 mps 761 mmHg 48%
    02:00 +24°C° 0 mm 2 mps 761 mmHg 47%
    03:00 +24°C° 0 mm 2 mps 761 mmHg 46%
    04:00 +23°C° 0 mm 2 mps 761 mmHg 45%
    05:00 +26°C° 0 mm 2 mps 761 mmHg 41%
    06:00 +28°C° 0 mm 2 mps 762 mmHg 37%
    07:00 +30°C° 0 mm 2 mps 762 mmHg 32%
    08:00 +32°C° 0 mm 2 mps 761 mmHg 29%
    09:00 +35°C° 0 mm 2 mps 761 mmHg 25%
    10:00 +37°C° 0 mm 3 mps 761 mmHg 21%
    11:00 +38°C° 0 mm 3 mps 761 mmHg 21%
    12:00 +38°C° 0 mm 4 mps 761 mmHg 21%
    13:00 +39°C° 0 mm 5 mps 761 mmHg 21%
    14:00 +37°C° 0 mm 5 mps 760 mmHg 25%
    15:00 +36°C° 0 mm 5 mps 760 mmHg 29%
    16:00 +35°C° 0 mm 5 mps 760 mmHg 33%
    17:00 +32°C° 0 mm 4 mps 760 mmHg 44%
    18:00 +28°C° 0 mm 4 mps 760 mmHg 55%
    19:00 +26°C° 0 mm 3 mps 760 mmHg 66%
    20:00 +25°C° 0 mm 3 mps 760 mmHg 64%
    21:00 +25°C° 0 mm 2 mps 761 mmHg 61%
    22:00 +25°C° 0 mm 2 mps 761 mmHg 58%
    23:00 +24°C° 0 mm 2 mps 761 mmHg 55%

    Tomorrow, 22 August, Thursday

    Time Temperature Precipitation Wind Pressure Humidity
    00:00 +24°C° 0 mm 2 mps 761 mmHg 51%
    01:00 +24°C° 0 mm 2 mps 761 mmHg 47%
    02:00 +24°C° 0 mm 2 mps 760 mmHg 47%
    03:00 +24°C° 0 mm 2 mps 760 mmHg 46%
    04:00 +24°C° 0 mm 2 mps 760 mmHg 45%
    05:00 +26°C° 0 mm 2 mps 760 mmHg 43%
    06:00 +29°C° 0 mm 2 mps 760 mmHg 40%
    07:00 +31°C° 0 mm 2 mps 761 mmHg 37%
    08:00 +34°C° 0 mm 3 mps 761 mmHg 34%
    09:00 +36°C° 0 mm 3 mps 761 mmHg 30%
    10:00 +39°C° 0 mm 3 mps 761 mmHg 27%
    11:00 +40°C° 0 mm 4 mps 760 mmHg 26%
    12:00 +40°C° 0 mm 5 mps 760 mmHg 25%
    13:00 +41°C° 0 mm 6 mps 760 mmHg 25%
    14:00 +40°C° 0 mm 6 mps 760 mmHg 28%
    15:00 +38°C° 0 mm 6 mps 760 mmHg 31%
    16:00 +36°C° 0 mm 6 mps 759 mmHg 34%
    17:00 +34°C° 0 mm 5 mps 759 mmHg 43%
    18:00 +30°C° 0 mm 4 mps 760 mmHg 52%
    19:00 +28°C° 0 mm 4 mps 760 mmHg 62%
    20:00 +27°C° 0 mm 3 mps 760 mmHg 60%
    21:00 +27°C° 0 mm 3 mps 760 mmHg 58%
    22:00 +27°C° 0 mm 2 mps 761 mmHg 56%
    23:00 +27°C° 0 mm 2 mps 760 mmHg 55%

    Day after tomorrow, 23 August, Friday

    Time Temperature Precipitation Wind Pressure Humidity
    00:00 +27°C° 0 mm 2 mps 760 mmHg 54%
    01:00 +26°C° 0 mm 1 mps 760 mmHg 53%
    02:00 +26°C° 0 mm 2 mps 760 mmHg 53%
    03:00 +26°C° 0 mm 3 mps 760 mmHg 53%
    04:00 +26°C° 0 mm 4 mps 760 mmHg 53%
    05:00 +28°C° 0 mm 4 mps 760 mmHg 47%
    06:00 +30°C° 0 mm 4 mps 760 mmHg 41%
    07:00 +33°C° 0 mm 5 mps 760 mmHg 36%
    08:00 +35°C° 0 mm 5 mps 760 mmHg 31%
    09:00 +37°C° 0 mm 5 mps 760 mmHg 26%
    10:00 +41°C° 0 mm 5 mps 760 mmHg 22%
    11:00 +41°C° 0 mm 5 mps 760 mmHg 21%
    12:00 +42°C° 0 mm 5 mps 760 mmHg 20%
    13:00 +42°C° 0 mm 6 mps 760 mmHg 19%
    14:00 +42°C° 0 mm 6 mps 759 mmHg 19%
    15:00 +41°C° 0 mm 5 mps 759 mmHg 20%
    16:00 +41°C° 0 mm 5 mps 759 mmHg 21%
    17:00 +37°C° 0 mm 5 mps 759 mmHg 25%
    18:00 +34°C° 0 mm 5 mps 759 mmHg 30%
    19:00 +30°C° 0 mm 5 mps 759 mmHg 35%
    20:00 +29°C° 0 mm 4 mps 759 mmHg 37%
    21:00 +28°C° 0 mm 4 mps 760 mmHg 40%
    22:00 +27°C° 0 mm 3 mps 760 mmHg 42%
    23:00 +27°C° 0 mm 3 mps 759 mmHg 42%

    24 August, Saturday

    Time Temperature Precipitation Wind Pressure Humidity
    00:00 +27°C° 0 mm 3 mps 759 mmHg 41%
    01:00 +26°C° 0 mm 3 mps 759 mmHg 41%
    02:00 +26°C° 0 mm 3 mps 759 mmHg 43%
    03:00 +26°C° 0 mm 3 mps 759 mmHg 45%
    04:00 +26°C° 0 mm 4 mps 759 mmHg 47%
    05:00 +28°C° 0 mm 4 mps 759 mmHg 43%
    06:00 +30°C° 0 mm 4 mps 759 mmHg 40%
    07:00 +33°C° 0 mm 4 mps 759 mmHg 36%
    08:00 +35°C° 0 mm 4 mps 759 mmHg 30%
    09:00 +38°C° 0 mm 4 mps 759 mmHg 25%
    10:00 +41°C° 0 mm 4 mps 759 mmHg 19%
    11:00 +42°C° 0 mm 4 mps 759 mmHg 19%
    12:00 +42°C° 0 mm 5 mps 759 mmHg 18%
    13:00 +43°C° 0 mm 5 mps 758 mmHg 17%
    14:00 +42°C° 0 mm 6 mps 758 mmHg 20%
    15:00 +41°C° 0 mm 6 mps 758 mmHg 22%
    16:00 +40°C° 0 mm 6 mps 758 mmHg 25%
    17:00 +36°C° 0 mm 5 mps 758 mmHg 34%
    18:00 +33°C° 0 mm 5 mps 758 mmHg 42%
    19:00 +29°C° 0 mm 4 mps 758 mmHg 51%
    20:00 +28°C° 0 mm 3 mps 759 mmHg 49%
    21:00 +28°C° 0 mm 3 mps 759 mmHg 47%
    22:00 +27°C° 0 mm 2 mps 759 mmHg 45%
    23:00 +27°C° 0 mm 2 mps 759 mmHg 44%

    25 August, Sunday

    Time Temperature Precipitation Wind Pressure Humidity
    00:00 +27°C° 0 mm 2 mps 758 mmHg 44%
    01:00 +26°C° 0 mm 1 mps 758 mmHg 43%
    02:00 +26°C° 0 mm 2 mps 758 mmHg 44%
    03:00 +26°C° 0 mm 2 mps 758 mmHg 46%
    04:00 +26°C° 0 mm 2 mps 757 mmHg 47%
    05:00 +28°C° 0 mm 2 mps 758 mmHg 42%
    06:00 +31°C° 0 mm 2 mps 758 mmHg 38%
    07:00 +34°C° 0 mm 2 mps 758 mmHg 33%
    08:00 +36°C° 0 mm 3 mps 758 mmHg 29%
    09:00 +38°C° 0 mm 3 mps 758 mmHg 24%
    10:00 +40°C° 0 mm 3 mps 758 mmHg 19%
    11:00 +42°C° 0 mm 4 mps 758 mmHg 19%
    12:00 +42°C° 0 mm 5 mps 757 mmHg 19%
    13:00 +42°C° 0 mm 6 mps 757 mmHg 19%
    14:00 +41°C° 0 mm 6 mps 757 mmHg 21%
    15:00 +40°C° 0 mm 6 mps 757 mmHg 24%
    16:00 +39°C° 0 mm 6 mps 757 mmHg 27%
    17:00 +35°C° 0 mm 5 mps 757 mmHg 38%
    18:00 +32°C° 0 mm 4 mps 757 mmHg 49%
    19:00 +28°C° 0 mm 3 mps 757 mmHg 60%
    20:00 +28°C° 0 mm 3 mps 757 mmHg 56%
    21:00 +27°C° 0 mm 2 mps 758 mmHg 52%
    22:00 +27°C° 0 mm 2 mps 758 mmHg 48%
    23:00 +27°C° 0 mm 2 mps 758 mmHg 47%

    26 August, Monday

    Time Temperature Precipitation Wind Pressure Humidity
    00:00 +27°C° 0 mm 2 mps 758 mmHg 46%
    01:00 +27°C° 0 mm 2 mps 757 mmHg 44%
    02:00 +26°C° 0 mm 2 mps 757 mmHg 46%
    03:00 +26°C° 0 mm 2 mps 757 mmHg 47%
    04:00 +26°C° 0 mm 3 mps 757 mmHg 49%
    05:00 +28°C° 0 mm 3 mps 758 mmHg 44%
    06:00 +30°C° 0 mm 3 mps 758 mmHg 40%
    07:00 +33°C° 0 mm 3 mps 758 mmHg 35%
    08:00 +36°C° 0 mm 3 mps 758 mmHg 30%
    09:00 +38°C° 0 mm 3 mps 758 mmHg 25%
    10:00 +41°C° 0 mm 4 mps 758 mmHg 19%
    11:00 +42°C° 0 mm 4 mps 758 mmHg 19%
    12:00 +42°C° 0 mm 4 mps 758 mmHg 20%
    13:00 +42°C° 0 mm 4 mps 758 mmHg 20%
    14:00 +41°C° 0 mm 4 mps 758 mmHg 23%
    15:00 +38°C° 0 mm 4 mps 758 mmHg 27%
    16:00 +37°C° 0 mm 4 mps 757 mmHg 30%
    17:00 +34°C° 0 mm 3 mps 758 mmHg 41%
    18:00 +30°C° 0 mm 3 mps 758 mmHg 53%
    19:00 +27°C° 0 mm 2 mps 758 mmHg 64%
    20:00 +27°C° 0 mm 2 mps 759 mmHg 62%
    21:00 +27°C° 0 mm 2 mps 759 mmHg 60%
    22:00 +26°C° 0 mm 2 mps 759 mmHg 58%
    23:00 +26°C° 0 mm 2 mps 759 mmHg 57%
    Show more